Flag for Lithuania Weather past 2 weeks in Vilnius, Lithuania

Now
32 °F

Ice fog.


Feels Like: 26 °F
Forecast: 28 / 34 °F
Wind: 7 mph from Southwest

Location: Vilnius Airport

Current Time: Jan 28, 2015 at 2:26:37 PM

Latest Report: Jan 28, 2015 at 1:50 PM


Visibility: 2 mi

Pressure: 29.71 "Hg

Humidity: 87%

Dew point: 28 °F

Location of VilniusLocation

Historic Weather in Vilnius — Graph

°F

Vilnius temperature yesterday

Maximum temperature yesterday: 30 °F (at 11:20 AM)
Minimum temperature yesterday: 28 °F (at 12:20 AM)
Average temperature yesterday: 29 °F

Past Weeks' High & Low Weather Summary

 TemperatureHumidityPressure
High41 °F (Jan 13, 1:20 PM)100% (Jan 13, 6:20 PM)30.21 "Hg (Jan 13, 6:20 PM)
Low25 °F (Jan 20, 12:20 AM)74% (Jan 20, 9:50 AM)29.59 "Hg (Jan 13, 9:20 PM)
Average32 °F94%29.98 "Hg
* Reported Jan 13 1:20 PM — Jan 28 1:20 PM, Vilnius, Weather by CustomWeather, © 2014

Note: Actual official high and low records may vary slightly from our data, if they occured in-between our weather recording intervals... More about our weather records

Advertising

Vilnius weather history for previous 24 hours

 ConditionsComfort  
Time TempWeatherWind HumidityBarometerVisibility
1:20 PM
Jan 28
32 °FIce fog.6 mph87%29.71 "Hg2 mi
12:50 PM32 °FIce fog.5 mph87%29.71 "Hg2 mi
12:20 PM32 °FIce fog.5 mph87%29.71 "Hg2 mi
11:50 AM32 °FIce fog.5 mph87%29.74 "Hg2 mi
11:20 AM30 °FIce fog.6 mph93%29.74 "Hg2 mi
10:50 AM30 °FIce fog.7 mph100%29.74 "Hg2 mi
10:20 AM30 °FIce fog.5 mph100%29.74 "Hg1 mi
9:50 AM30 °FIce fog.5 mph100%29.74 "Hg1 mi
9:20 AM30 °FIce fog.6 mph100%29.74 "Hg1 mi
8:50 AM30 °FIce fog.5 mph100%29.74 "Hg1 mi
8:20 AM30 °FIce fog.5 mph100%29.74 "Hg1 mi
7:50 AM30 °FLight snow. Ice fog.5 mph100%29.74 "Hg1 mi
7:20 AM30 °FLight snow. Ice fog.5 mph100%29.74 "Hg1 mi
6:50 AM30 °FMixture of precip. Ice fog.5 mph100%29.74 "Hg1 mi
6:20 AM30 °FMixture of precip. Ice fog.5 mph100%29.74 "Hg2 mi
5:50 AM30 °FMixture of precip. Ice fog.5 mph100%29.74 "Hg2 mi
5:20 AM30 °FMixture of precip. Ice fog.6 mph100%29.77 "Hg2 mi
4:50 AM30 °FMixture of precip. Ice fog.6 mph100%29.77 "Hg2 mi
4:20 AM30 °FMixture of precip. Ice fog.6 mph100%29.77 "Hg1 mi
3:50 AM30 °FMixture of precip. Ice fog.6 mph100%29.77 "Hg1 mi
3:20 AM30 °FLight snow. Ice fog.5 mph93%29.77 "Hg2 mi
2:50 AM30 °FLight snow. Ice fog.6 mph93%29.80 "Hg2 mi
2:20 AM30 °FLight snow. Ice fog.6 mph93%29.80 "Hg2 mi
1:50 AM30 °FLight snow. Ice fog.6 mph93%29.80 "Hg2 mi
1:20 AM30 °FIce fog.7 mph93%29.80 "Hg2 mi
12:50 AM28 °FIce fog.6 mph100%29.80 "Hg2 mi
12:20 AM30 °FIce fog.6 mph93%29.80 "Hg2 mi
11:50 PM
Jan 27
30 °FIce fog.6 mph93%29.83 "Hg2 mi
11:20 PM30 °FIce fog.6 mph93%29.83 "Hg2 mi
10:50 PM28 °FIce fog.5 mph100%29.83 "Hg2 mi
10:20 PM30 °FIce fog.5 mph93%29.86 "Hg2 mi
9:50 PM30 °FIce fog.5 mph93%29.86 "Hg2 mi
9:20 PM30 °FIce fog.8 mph93%29.86 "Hg2 mi
8:50 PM30 °FIce fog.8 mph93%29.86 "Hg2 mi
8:20 PM30 °FIce fog.10 mph93%29.86 "Hg2 mi
7:50 PM30 °FIce fog.8 mph93%29.86 "Hg2 mi
7:20 PM30 °FIce fog.8 mph93%29.86 "Hg2 mi
6:50 PM30 °FIce fog.8 mph93%29.86 "Hg2 mi
6:20 PM30 °FIce fog.8 mph93%29.86 "Hg2 mi
5:50 PM30 °FIce fog.6 mph93%29.86 "Hg2 mi
5:20 PM30 °FIce fog.8 mph93%29.86 "Hg2 mi
4:50 PM30 °FIce fog.8 mph93%29.86 "Hg2 mi
4:20 PM30 °FIce fog.8 mph93%29.86 "Hg2 mi
3:50 PM30 °FIce fog.7 mph93%29.86 "Hg2 mi
3:20 PM30 °FIce fog.7 mph93%29.86 "Hg2 mi
2:50 PM30 °FIce fog.8 mph93%29.86 "Hg2 mi
2:20 PM30 °FIce fog.8 mph93%29.86 "Hg2 mi
Weather by CustomWeather, © 2014

See weather overviewHow to use our weather pages